Weather in Shulginka

Russia / Altai Krai     52°26′13″N   85°19′00″E
temp.,
°C
wind,
m/s
gust,
m/s
humid.,
%
clouds,
%
prec.,
mm/h
press.,
hPa
HPBL,
m
24 january, mon
mon2401:00−26sse1110098 0.0 10389
04:00−25ssw11100100 0.0 103819
07:00−20wsw2299100 0.1 103862
10:00−21ssw1199100 0.1 103939
13:00−16ssw119294 0.3 1039176
16:00−15ese119159 0.0 1039156
19:00−23e1110053 0.0 10419
22:00−25ene2210059 0.0 10419
25 january, tue
tue2501:00−27ene2210065 0.0 10409
04:00−27ne1110072 0.0 10399
07:00−28ese1110095 0.0 10399
10:00−28sse1110093 0.0 103913
13:00−20sw119786 0.0 1038121
16:00−17sw1192100 0.0 1036139
19:00−22s22100100 0.0 103710
22:00−25sse11100100 0.0 10379
26 january, wed
wed2601:00−26ese11100100 0.0 10379
04:00−22e1199100 0.0 103519
07:00−22e2298100 0.0 103432
10:00−19e2393100 0.0 103361
13:00−13e2384100 0.0 1031145
16:00−11ne1182100 0.0 1031141
19:00−12ene2292100 0.0 103227
22:00−12ene1192100 0.0 103216
27 january, thu
thu2701:00−12e1192100 0.1 103320
04:00−13ese1195100 0.1 103415
07:00−16e1197100 0.1 10369
10:00−16e119688 0.0 103815
13:00−10se119288 0.1 1038163
16:00−9sse119180 0.1 1038188
19:00−17ene0110075 0.1 10409
22:00−18ene1110098 0.1 10409
28 january, fri
fri2801:00−21ene22100100 0.1 104010
04:00−23ene11100100 0.1 10409
07:00−25e22100100 0.1 104111
10:00−24e2210099 0.0 104136
13:00−15e239373 0.1 1039159
16:00−13e239253 0.0 1037175
19:00−20ne2210027 0.0 103713
22:00−23ene2210048 0.0 103717